Regional Weather Roundup
Issued by NWS Goodland, KS

Home | Current Version | Previous Version | Text Only | Print | Product List | Glossary Off
Versions: 1 2 3 4 5 6 7 8 9 10 11 12 13 14 15 16 17 18 19 20 21 22 23 24 25 26 27 28 29 30 31 32 33 34 35 36 37 38 39 40 41 42 43 44 45 46 47 48 49 50

000
ASUS43 KGLD 261408
RWRGLD

GOODLAND FORECAST AREA HOURLY WEATHER ROUNDUP
NATIONAL WEATHER SERVICE GOODLAND KS
700 AM MST SUN FEB 26 2017

...OFFICIAL OBSERVATIONS...

CITY           SKY/WX    TMP DP  RH WIND       PRES   REMARKS
GOODLAND KS    CLEAR     13   7  77 W7        29.87S
HILL CITY KS   CLEAR     19  12  74 N8        29.93R
IMPERIAL NEB   CLEAR     19   8  62 NW8       29.88R
MCCOOK NEB     CLEAR     18  14  84 W7        29.92R
AKRON CO       CLEAR     17   5  59 NW3       29.82S
BURLINGTON CO  CLEAR      8   2  76 W6        29.86S
LIMON CO       CLEAR      4  -1  80 NW6       29.80S
$$

...UNOFFICIAL OBSERVATIONS...

CITY           SKY/WX    TMP DP  RH WIND       PRES   REMARKS
LENORA KS        N/A     19  32 100 N6          N/A
SHARON SPRINGS   N/A     15   9  75 NW6         N/A
TRENTON NEB      N/A     19  32 100 CALM        N/A
KIT CARSON CO    N/A     14   6  72 CALM        N/A
YUMA CO        FAIR      10   5  79 W3        29.85F
$$



USA.gov is the U.S. government's official web portal to all federal, state and local government web resources and services.